Date String (YYYY-MM-DD hh:mm:ss) UTC,Instrument flags,absolute air pressure of the measurement (hPa),sample flow rate (lpm),inlet stack bypass flow (lpm),air temperature of the measurement (°C),ambient temperature measured by the external sensor (°C),aerosol sample conditioner tube jacket temperature (°C),OPC LED temperature (°C),internal box temperature (°C),relative humidity of the measurement (%),span deviation,mass concentration of particles derived from Lorenz-Mie calculation of OPC scattering (μg/m³),mass concentration of particles derived from Lorenz-Mie calculation of OPC scattering (μg/m³),mass concentration of particles derived from Lorenz-Mie calculation of OPC scattering (μg/m³)
DateTimeUTC,F1_M11,P_M11,Q1_M11,Q2_M11,T1_M11,T2_M11,T3_M11,T4_M11,T5_M11,U1_M11,ZSPAN_M11,X0_M11,X2_M11,X1_M11
2024-01-13 05:00:00,SystemResetWarning,0817.3,5.00,000.00,019.1,018.7,000.0,027.3,020.1,6.4,0000.0,0009.89,0005.06,0004.52
2024-01-13 05:01:00,SystemResetWarning,0817.2,5.00,000.00,019.0,018.4,000.0,027.4,020.0,6.4,0000.0,0009.83,0005.06,0004.53
2024-01-13 05:02:00,SystemResetWarning,0817.2,5.00,000.00,019.0,018.2,000.0,027.4,020.0,6.4,0000.0,0009.84,0005.06,0004.55
2024-01-13 05:03:00,SystemResetWarning,0817.2,5.00,000.00,018.9,018.0,000.0,027.4,020.0,6.4,0001.2,0010.73,0005.07,0004.57
2024-01-13 05:04:00,SystemResetWarning,0817.3,5.00,000.00,018.9,017.9,000.0,027.4,020.0,6.4,0002.9,0010.55,0005.07,0004.58
2024-01-13 05:05:00,SystemResetWarning,0817.4,5.00,000.00,018.9,017.8,000.0,027.4,020.1,6.4,0002.8,0010.58,0005.08,0004.61
2024-01-13 05:06:00,SystemResetWarning,0817.4,5.02,000.00,019.0,018.3,000.0,027.4,020.5,6.3,0002.7,0011.05,0005.16,0004.61
2024-01-13 05:07:00,SystemResetWarning,0817.4,5.00,000.00,019.1,018.9,000.0,027.4,020.8,6.3,0002.7,0010.69,0005.20,0004.61
2024-01-13 05:08:00,SystemResetWarning,0817.5,5.00,000.00,019.1,018.9,000.0,027.3,020.3,6.3,0002.7,0011.02,0005.27,0004.62
2024-01-13 05:09:00,SystemResetWarning,0817.5,4.99,000.00,019.0,018.6,000.0,027.4,020.0,6.3,0002.5,0011.16,0005.25,0004.61
2024-01-13 05:10:00,SystemResetWarning,0817.5,5.00,000.00,019.0,018.3,000.0,027.4,020.0,6.3,0002.8,0011.67,0005.26,0004.61
2024-01-13 05:11:00,SystemResetWarning,0817.5,5.01,000.00,018.9,018.1,000.0,027.4,020.0,6.3,0003.1,0011.91,0005.31,0004.61
2024-01-13 05:12:00,SystemResetWarning,0817.6,5.00,000.00,018.9,017.9,000.0,027.4,020.0,6.2,0003.0,0012.13,0005.32,0004.60
2024-01-13 05:13:00,SystemResetWarning,0817.5,5.00,000.00,018.9,017.8,000.0,027.4,020.0,6.2,0002.9,0012.20,0005.30,0004.59
2024-01-13 05:14:00,SystemResetWarning,0817.5,5.00,000.00,018.8,017.7,000.0,027.4,020.0,6.3,0003.0,0011.63,0005.31,0004.57
2024-01-13 05:15:00,SystemResetWarning,0817.5,5.01,000.00,018.9,017.8,000.0,027.4,020.2,6.2,0002.5,0011.33,0005.29,0004.56
2024-01-13 05:16:00,SystemResetWarning,0817.6,5.02,000.00,019.0,018.5,000.0,027.3,020.6,6.3,0002.6,0011.56,0005.29,0004.54
2024-01-13 05:17:00,SystemResetWarning,0817.6,4.99,000.00,019.1,019.0,000.0,027.3,020.6,6.2,0002.9,0011.50,0005.28,0004.52
2024-01-13 05:18:00,SystemResetWarning,0817.6,4.99,000.00,019.0,018.8,000.0,027.3,020.1,6.3,0002.7,0011.38,0005.25,0004.53
2024-01-13 05:19:00,SystemResetWarning,0817.6,4.99,000.00,018.9,018.5,000.0,027.3,020.0,6.3,0002.7,0010.82,0005.19,0004.53
2024-01-13 05:20:00,SystemResetWarning,0817.7,5.00,000.00,018.9,018.2,000.0,027.4,020.0,6.3,0002.3,0010.62,0005.17,0004.52
2024-01-13 05:21:00,SystemResetWarning,0817.6,5.00,000.00,018.9,018.0,000.0,027.4,020.0,6.3,0001.9,0010.20,0005.15,0004.51
2024-01-13 05:22:00,SystemResetWarning,0817.5,4.99,000.00,018.9,017.9,000.0,027.4,020.0,6.3,0001.5,0009.86,0005.09,0004.49
2024-01-13 05:23:00,SystemResetWarning,0817.5,5.00,000.00,018.8,017.7,000.0,027.4,020.0,6.3,0001.5,0009.61,0005.05,0004.48
2024-01-13 05:24:00,SystemResetWarning,0817.5,5.00,000.00,018.8,017.6,000.0,027.4,020.0,6.3,0002.0,0009.62,0005.03,0004.48
2024-01-13 05:25:00,SystemResetWarning,0817.7,5.01,000.00,018.9,018.0,000.0,027.3,020.4,6.3,0002.2,0009.62,0005.03,0004.48
2024-01-13 05:26:00,SystemResetWarning,0817.7,5.00,000.00,019.0,018.7,000.0,027.3,020.7,6.3,0002.0,0009.85,0005.05,0004.47
2024-01-13 05:27:00,SystemResetWarning,0817.6,4.99,000.00,019.0,018.8,000.0,027.3,020.3,6.1,0002.4,0009.76,0005.05,0004.47
2024-01-13 05:28:00,SystemResetWarning,0817.6,4.99,000.00,019.0,018.6,000.0,027.3,020.0,6.2,0001.9,0009.81,0005.04,0004.47
2024-01-13 05:29:00,SystemResetWarning,0817.6,5.00,000.00,018.9,018.4,000.0,027.3,020.0,6.2,0002.1,0009.55,0005.00,0004.45
2024-01-13 05:30:00,SystemResetWarning,0817.6,5.00,000.00,018.9,018.2,000.0,027.4,020.0,6.2,0001.2,0009.88,0005.02,0004.45
2024-01-13 05:31:00,SystemResetWarning,0817.6,5.01,000.00,018.9,018.0,000.0,027.4,020.0,6.2,0000.0,0009.76,0005.00,0004.44
2024-01-13 05:32:00,SystemResetWarning,0817.6,5.00,000.00,018.9,017.8,000.0,027.4,020.0,6.1,0000.2,0009.88,0005.01,0004.44
2024-01-13 05:33:00,SystemResetWarning,0817.8,5.01,000.00,018.9,017.7,000.0,027.4,020.0,6.1,-000.4,0009.91,0005.02,0004.45
2024-01-13 05:34:00,SystemResetWarning,0817.8,5.01,000.00,018.9,018.0,000.0,027.3,020.4,6.2,-000.7,0009.97,0005.03,0004.44
2024-01-13 05:35:00,SystemResetWarning,0817.8,5.00,000.00,019.0,018.7,000.0,027.3,020.7,6.2,-000.6,0010.14,0005.05,0004.42
2024-01-13 05:36:00,SystemResetWarning,0817.8,4.99,000.00,019.1,018.9,000.0,027.3,020.4,6.2,-000.5,0010.88,0005.04,0004.41
2024-01-13 05:37:00,SystemResetWarning,0817.8,4.99,000.00,019.0,018.6,000.0,027.3,020.0,6.2,-001.1,0010.84,0005.02,0004.41
2024-01-13 05:38:00,SystemResetWarning,0817.7,5.01,000.00,018.9,018.3,000.0,027.3,020.0,6.2,-001.4,0010.83,0005.03,0004.39
2024-01-13 05:39:00,SystemResetWarning,0817.8,5.01,000.00,018.9,018.1,000.0,027.4,020.0,6.2,-001.4,0010.94,0005.03,0004.38
2024-01-13 05:40:00,SystemResetWarning,0817.8,5.00,000.00,018.9,017.9,000.0,027.4,020.0,6.2,-000.9,0010.80,0005.02,0004.38
2024-01-13 05:41:00,SystemResetWarning,0817.8,4.99,000.00,018.8,017.8,000.0,027.4,020.0,6.3,-000.9,0010.29,0004.94,0004.37
2024-01-13 05:42:00,SystemResetWarning,0817.6,5.00,000.00,018.8,017.7,000.0,027.4,020.0,6.3,0000.0,0010.20,0004.93,0004.36
2024-01-13 05:43:00,SystemResetWarning,0817.6,5.00,000.00,018.9,017.9,000.0,027.3,020.3,6.3,0000.1,0010.86,0004.96,0004.36
2024-01-13 05:44:00,SystemResetWarning,0817.7,5.01,000.00,019.0,018.7,000.0,027.3,020.7,6.3,0000.4,0011.02,0004.98,0004.36
2024-01-13 05:45:00,SystemResetWarning,0817.8,4.99,000.00,019.1,019.3,000.0,027.3,020.9,6.3,0001.5,0011.11,0004.96,0004.36
2024-01-13 05:46:00,SystemResetWarning,0817.9,4.98,000.00,019.1,019.1,000.0,027.3,020.4,6.3,0001.8,0010.99,0004.94,0004.35
2024-01-13 05:47:00,SystemResetWarning,0817.8,5.01,000.00,019.0,018.8,000.0,027.3,020.0,6.3,0001.8,0010.07,0004.90,0004.34
2024-01-13 05:48:00,SystemResetWarning,0817.8,5.00,000.00,019.0,018.5,000.0,027.3,020.0,6.3,0002.2,0009.82,0004.88,0004.33
2024-01-13 05:49:00,SystemResetWarning,0817.8,5.00,000.00,018.9,018.2,000.0,027.4,020.0,6.3,0002.3,0009.72,0004.89,0004.33
2024-01-13 05:50:00,SystemResetWarning,0817.9,4.99,000.00,018.9,018.0,000.0,027.4,020.0,6.3,0002.5,0009.66,0004.88,0004.33
2024-01-13 05:51:00,SystemResetWarning,0817.8,5.01,000.00,018.9,017.9,000.0,027.4,020.0,6.3,0002.2,0010.16,0004.88,0004.33
2024-01-13 05:52:00,SystemResetWarning,0817.7,5.01,000.00,018.9,017.8,000.0,027.4,020.1,6.3,0002.3,0011.27,0004.91,0004.32
2024-01-13 05:53:00,SystemResetWarning,0817.8,5.00,000.00,018.9,018.4,000.0,027.3,020.5,6.2,0002.3,0011.61,0004.94,0004.33
2024-01-13 05:54:00,SystemResetWarning,0818.0,4.99,000.00,019.1,019.0,000.0,027.3,020.8,6.2,0002.5,0011.15,0004.92,0004.32
2024-01-13 05:55:00,SystemResetWarning,0817.9,4.99,000.00,019.1,018.9,000.0,027.3,020.3,6.2,0002.2,0010.80,0004.95,0004.32
2024-01-13 05:56:00,SystemResetWarning,0817.8,5.00,000.00,019.0,018.6,000.0,027.3,020.0,6.3,0001.6,0011.00,0004.97,0004.34
2024-01-13 05:57:00,SystemResetWarning,0817.8,5.00,000.00,019.0,018.4,000.0,027.4,020.0,6.3,0001.8,0011.29,0004.98,0004.34
2024-01-13 05:58:00,SystemResetWarning,0817.8,5.00,000.00,018.9,018.1,000.0,027.4,020.0,6.2,0001.0,0011.33,0005.00,0004.35
2024-01-13 05:59:00,SystemResetWarning,0817.9,4.99,000.00,018.9,017.9,000.0,027.4,020.0,6.2,0001.3,0011.45,0005.02,0004.35
